Time,TemperatureF,DewpointF,PressureIn,WindDirection,WindDirectionDegrees,WindSpeedMPH,WindSpeedGustMPH,Humidity,HourlyPrecipIn,Conditions,Clouds,dailyrainin,SoftwareType,DateUTC
2013-04-04 00:03:00,32.0,15.0,30.35,NW,315,3.0,6.0,49,0.00,,,0.00,,2013-04-04 04:03:00,
2013-04-04 00:13:00,32.0,15.0,30.35,NW,315,3.0,6.0,49,0.00,,,0.00,,2013-04-04 04:13:00,
2013-04-04 00:23:00,32.0,15.0,30.34,NNW,338,2.0,5.0,50,0.00,,,0.00,,2013-04-04 04:23:00,
2013-04-04 00:33:00,32.0,16.0,30.34,NNE,21,3.0,5.0,51,0.00,,,0.00,,2013-04-04 04:33:00,
2013-04-04 00:43:00,32.0,16.0,30.34,NNE,21,3.0,5.0,51,0.00,,,0.00,,2013-04-04 04:43:00,
2013-04-04 00:53:00,32.0,16.0,30.32,NW,315,3.0,6.0,51,0.00,,,0.00,,2013-04-04 04:53:00,
2013-04-04 01:02:00,32.0,16.0,30.32,NW,315,2.0,3.0,51,0.00,,,0.00,,2013-04-04 05:02:00,
2013-04-04 01:13:00,32.0,16.0,30.32,NW,315,2.0,3.0,51,0.00,,,0.00,,2013-04-04 05:13:00,
2013-04-04 01:23:00,31.0,15.0,30.33,West,271,2.0,3.0,51,0.00,,,0.00,,2013-04-04 05:23:00,
2013-04-04 01:32:00,31.0,15.0,30.33,NW,315,0.0,1.0,51,0.00,,,0.00,,2013-04-04 05:32:00,
2013-04-04 01:42:00,31.0,15.0,30.33,NW,315,0.0,1.0,51,0.00,,,0.00,,2013-04-04 05:42:00,
2013-04-04 01:53:00,30.0,15.0,30.33,NW,314,1.0,2.0,52,0.00,,,0.00,,2013-04-04 05:53:00,
2013-04-04 02:02:00,30.0,15.0,30.33,West,270,1.0,2.0,53,0.00,,,0.00,,2013-04-04 06:02:00,
2013-04-04 02:12:00,30.0,15.0,30.33,West,270,1.0,2.0,53,0.00,,,0.00,,2013-04-04 06:12:00,
2013-04-04 02:22:00,30.0,15.0,30.33,West,270,1.0,2.0,53,0.00,,,0.00,,2013-04-04 06:22:00,
2013-04-04 02:32:00,30.0,15.0,30.35,West,270,1.0,1.0,54,0.00,,,0.00,,2013-04-04 06:32:00,
2013-04-04 02:42:00,30.0,15.0,30.35,West,270,1.0,1.0,54,0.00,,,0.00,,2013-04-04 06:42:00,
2013-04-04 02:53:00,29.0,15.0,30.35,West,270,1.0,2.0,55,0.00,,,0.00,,2013-04-04 06:53:00,
2013-04-04 03:02:00,29.0,15.0,30.35,WSW,248,2.0,3.0,56,0.00,,,0.00,,2013-04-04 07:02:00,
2013-04-04 03:12:00,29.0,15.0,30.35,WSW,248,2.0,3.0,56,0.00,,,0.00,,2013-04-04 07:12:00,
2013-04-04 03:22:00,29.0,15.0,30.35,South,186,1.0,2.0,56,0.00,,,0.00,,2013-04-04 07:22:00,
2013-04-04 03:32:00,29.0,16.0,30.35,SSW,198,1.0,2.0,57,0.00,,,0.00,,2013-04-04 07:32:00,
2013-04-04 03:43:00,29.0,16.0,30.35,SSW,198,1.0,2.0,57,0.00,,,0.00,,2013-04-04 07:43:00,
2013-04-04 03:53:00,28.0,15.0,30.35,SW,232,1.0,2.0,58,0.00,,,0.00,,2013-04-04 07:53:00,
2013-04-04 04:02:00,28.0,15.0,30.34,WSW,248,1.0,2.0,57,0.00,,,0.00,,2013-04-04 08:02:00,
2013-04-04 04:12:00,28.0,15.0,30.34,WSW,248,1.0,2.0,57,0.00,,,0.00,,2013-04-04 08:12:00,
2013-04-04 04:23:00,28.0,15.0,30.34,WSW,248,1.0,2.0,58,0.00,,,0.00,,2013-04-04 08:23:00,
2013-04-04 04:32:00,28.0,15.0,30.34,WSW,241,1.0,2.0,58,0.00,,,0.00,,2013-04-04 08:32:00,
2013-04-04 04:43:00,28.0,15.0,30.34,WSW,241,1.0,2.0,58,0.00,,,0.00,,2013-04-04 08:43:00,
2013-04-04 04:52:00,28.0,15.0,30.35,WNW,283,1.0,3.0,58,0.00,,,0.00,,2013-04-04 08:52:00,
2013-04-04 05:03:00,27.0,15.0,30.35,WSW,254,0.0,2.0,59,0.00,,,0.00,,2013-04-04 09:03:00,
2013-04-04 05:12:00,27.0,15.0,30.35,WSW,254,0.0,2.0,59,0.00,,,0.00,,2013-04-04 09:12:00,
2013-04-04 05:22:00,27.0,15.0,30.37,NW,315,1.0,2.0,59,0.00,,,0.00,,2013-04-04 09:22:00,
2013-04-04 05:33:00,27.0,15.0,30.37,WSW,256,0.0,1.0,60,0.00,,,0.00,,2013-04-04 09:33:00,
2013-04-04 05:43:00,27.0,15.0,30.37,WSW,256,0.0,1.0,60,0.00,,,0.00,,2013-04-04 09:43:00,
2013-04-04 06:04:00,27.0,15.0,30.37,WSW,239,1.0,2.0,60,0.00,,,0.00,,2013-04-04 10:04:00,
2013-04-04 06:12:00,27.0,15.0,30.37,WSW,239,1.0,2.0,60,0.00,,,0.00,,2013-04-04 10:12:00,
2013-04-04 06:24:00,27.0,15.0,30.37,WNW,284,0.0,1.0,60,0.00,,,0.00,,2013-04-04 10:24:00,
2013-04-04 06:33:00,27.0,15.0,30.37,WSW,244,0.0,2.0,61,0.00,,,0.00,,2013-04-04 10:33:00,
2013-04-04 06:42:00,27.0,15.0,30.37,WSW,244,0.0,2.0,61,0.00,,,0.00,,2013-04-04 10:42:00,
2013-04-04 06:54:00,27.0,15.0,30.37,NNW,338,0.0,2.0,61,0.00,,,0.00,,2013-04-04 10:54:00,
2013-04-04 07:03:00,27.0,15.0,30.37,WNW,286,1.0,2.0,61,0.00,,,0.00,,2013-04-04 11:03:00,
2013-04-04 07:12:00,27.0,15.0,30.37,WNW,286,1.0,2.0,61,0.00,,,0.00,,2013-04-04 11:12:00,
2013-04-04 07:22:00,27.0,16.0,30.40,WSW,248,0.0,2.0,62,0.00,,,0.00,,2013-04-04 11:22:00,
2013-04-04 07:33:00,26.0,15.0,30.40,West,270,1.0,2.0,63,0.00,,,0.00,,2013-04-04 11:33:00,
2013-04-04 07:42:00,26.0,15.0,30.40,West,270,1.0,2.0,63,0.00,,,0.00,,2013-04-04 11:42:00,
2013-04-04 07:55:00,26.0,15.0,30.38,SW,225,1.0,2.0,63,0.00,,,0.00,,2013-04-04 11:55:00,
2013-04-04 08:03:00,27.0,16.0,30.39,SW,225,1.0,2.0,64,0.00,,,0.00,,2013-04-04 12:03:00,
2013-04-04 08:12:00,27.0,16.0,30.39,SW,225,1.0,2.0,64,0.00,,,0.00,,2013-04-04 12:12:00,
2013-04-04 08:23:00,28.0,17.0,30.40,SW,225,0.0,2.0,62,0.00,,,0.00,,2013-04-04 12:23:00,
2013-04-04 08:32:00,29.0,17.0,30.40,SW,225,0.0,0.0,60,0.00,,,0.00,,2013-04-04 12:32:00,
2013-04-04 08:43:00,29.0,17.0,30.40,SW,225,0.0,0.0,60,0.00,,,0.00,,2013-04-04 12:43:00,
2013-04-04 08:52:00,29.0,16.0,30.39,SW,225,0.0,0.0,59,0.00,,,0.00,,2013-04-04 12:52:00,
2013-04-04 09:02:00,30.0,17.0,30.38,SW,225,0.0,0.0,59,0.00,,,0.00,,2013-04-04 13:02:00,
2013-04-04 09:12:00,30.0,17.0,30.38,SW,225,0.0,0.0,59,0.00,,,0.00,,2013-04-04 13:12:00,
2013-04-04 09:22:00,31.0,18.0,30.39,SW,225,0.0,0.0,57,0.00,,,0.00,,2013-04-04 13:22:00,
2013-04-04 09:32:00,32.0,18.0,30.39,SW,225,0.0,0.0,56,0.00,,,0.00,,2013-04-04 13:32:00,
2013-04-04 09:43:00,32.0,18.0,30.39,SW,225,0.0,0.0,56,0.00,,,0.00,,2013-04-04 13:43:00,
2013-04-04 09:53:00,32.0,18.0,30.38,SW,225,0.0,0.0,55,0.00,,,0.00,,2013-04-04 13:53:00,
2013-04-04 10:03:00,33.0,18.0,30.37,SW,225,0.0,0.0,54,0.00,,,0.00,,2013-04-04 14:03:00,
2013-04-04 10:13:00,33.0,18.0,30.37,SW,225,0.0,0.0,54,0.00,,,0.00,,2013-04-04 14:13:00,
2013-04-04 10:22:00,34.0,19.0,30.37,SW,225,0.0,0.0,53,0.00,,,0.00,,2013-04-04 14:22:00,
2013-04-04 10:33:00,34.0,19.0,30.37,SW,225,0.0,0.0,53,0.00,,,0.00,,2013-04-04 14:33:00,
2013-04-04 10:43:00,34.0,19.0,30.37,SW,225,0.0,0.0,53,0.00,,,0.00,,2013-04-04 14:43:00,
2013-04-04 10:53:00,36.0,21.0,30.35,SW,225,0.0,0.0,53,0.00,,,0.00,,2013-04-04 14:53:00,
2013-04-04 11:02:00,37.0,21.0,30.33,SW,225,0.0,0.0,51,0.00,,,0.00,,2013-04-04 15:02:00,
2013-04-04 11:13:00,37.0,21.0,30.33,SW,225,0.0,0.0,51,0.00,,,0.00,,2013-04-04 15:13:00,
2013-04-04 11:23:00,38.0,21.0,30.33,SW,225,0.0,0.0,49,0.00,,,0.00,,2013-04-04 15:23:00,
2013-04-04 11:33:00,39.0,23.0,30.33,SW,225,0.0,0.0,52,0.00,,,0.00,,2013-04-04 15:33:00,
2013-04-04 11:43:00,39.0,23.0,30.33,SW,225,0.0,0.0,52,0.00,,,0.00,,2013-04-04 15:43:00,
2013-04-04 11:54:00,41.0,23.0,30.32,SW,225,0.0,0.0,49,0.00,,,0.00,,2013-04-04 15:54:00,
2013-04-04 12:03:00,41.0,22.0,30.32,SW,225,0.0,0.0,47,0.00,,,0.00,,2013-04-04 16:03:00,
2013-04-04 12:12:00,41.0,22.0,30.32,SW,225,0.0,0.0,47,0.00,,,0.00,,2013-04-04 16:12:00,
2013-04-04 12:24:00,42.0,23.0,30.31,SW,225,0.0,0.0,46,0.00,,,0.00,,2013-04-04 16:24:00,
2013-04-04 12:33:00,44.0,25.0,30.31,SW,225,0.0,0.0,47,0.00,,,0.00,,2013-04-04 16:33:00,
2013-04-04 12:42:00,44.0,25.0,30.31,SW,225,0.0,0.0,47,0.00,,,0.00,,2013-04-04 16:42:00,
2013-04-04 12:54:00,45.0,24.0,30.30,SW,225,0.0,0.0,44,0.00,,,0.00,,2013-04-04 16:54:00,
2013-04-04 13:03:00,46.0,25.0,30.29,SW,225,0.0,0.0,43,0.00,,,0.00,,2013-04-04 17:03:00,
2013-04-04 13:13:00,46.0,25.0,30.29,SW,225,0.0,0.0,43,0.00,,,0.00,,2013-04-04 17:13:00,
2013-04-04 13:23:00,47.0,25.0,30.28,SW,225,0.0,0.0,42,0.00,,,0.00,,2013-04-04 17:23:00,
2013-04-04 13:33:00,49.0,27.0,30.28,SW,225,0.0,0.0,42,0.00,,,0.00,,2013-04-04 17:33:00,
2013-04-04 13:43:00,49.0,27.0,30.28,SW,225,0.0,0.0,42,0.00,,,0.00,,2013-04-04 17:43:00,
2013-04-04 13:53:00,50.0,25.0,30.27,SW,225,0.0,0.0,38,0.00,,,0.00,,2013-04-04 17:53:00,
2013-04-04 14:02:00,51.0,25.0,30.26,SW,225,0.0,0.0,36,0.00,,,0.00,,2013-04-04 18:02:00,
2013-04-04 14:12:00,51.0,25.0,30.26,SW,225,0.0,0.0,36,0.00,,,0.00,,2013-04-04 18:12:00,
2013-04-04 14:23:00,52.0,26.0,30.25,SW,225,0.0,0.0,36,0.00,,,0.00,,2013-04-04 18:23:00,
2013-04-04 14:32:00,53.0,25.0,30.25,SW,225,0.0,0.0,33,0.00,,,0.00,,2013-04-04 18:32:00,
2013-04-04 14:43:00,53.0,25.0,30.25,SW,225,0.0,0.0,33,0.00,,,0.00,,2013-04-04 18:43:00,
2013-04-04 14:53:00,54.0,26.0,30.23,SW,225,0.0,0.0,34,0.00,,,0.00,,2013-04-04 18:53:00,
2013-04-04 15:02:00,55.0,26.0,30.23,SW,225,0.0,0.0,32,0.00,,,0.00,,2013-04-04 19:02:00,
2013-04-04 15:12:00,55.0,26.0,30.23,SW,225,0.0,0.0,32,0.00,,,0.00,,2013-04-04 19:12:00,
2013-04-04 15:22:00,56.0,25.0,30.25,SW,225,0.0,0.0,30,0.00,,,0.00,,2013-04-04 19:22:00,
2013-04-04 15:33:00,57.0,27.0,30.25,SW,225,0.0,0.0,31,0.00,,,0.00,,2013-04-04 19:33:00,
2013-04-04 15:42:00,57.0,27.0,30.25,SW,225,0.0,0.0,31,0.00,,,0.00,,2013-04-04 19:42:00,
2013-04-04 15:52:00,57.0,26.0,30.26,SW,225,0.0,0.0,30,0.00,,,0.00,,2013-04-04 19:52:00,
2013-04-04 16:04:00,58.0,26.0,30.25,SW,225,0.0,0.0,29,0.00,,,0.00,,2013-04-04 20:04:00,
2013-04-04 16:12:00,58.0,26.0,30.25,SW,225,0.0,0.0,29,0.00,,,0.00,,2013-04-04 20:12:00,
2013-04-04 16:23:00,58.0,26.0,30.24,SW,225,0.0,0.0,29,0.00,,,0.00,,2013-04-04 20:23:00,
2013-04-04 16:32:00,57.0,26.0,30.24,SW,225,0.0,0.0,30,0.00,,,0.00,,2013-04-04 20:32:00,
2013-04-04 16:42:00,57.0,26.0,30.24,SW,225,0.0,0.0,30,0.00,,,0.00,,2013-04-04 20:42:00,
2013-04-04 16:53:00,56.0,23.0,30.22,SW,225,0.0,0.0,28,0.00,,,0.00,,2013-04-04 20:53:00,
2013-04-04 17:02:00,56.0,23.0,30.21,SW,225,0.0,0.0,28,0.00,,,0.00,,2013-04-04 21:02:00,
2013-04-04 17:12:00,56.0,23.0,30.21,SW,225,0.0,0.0,28,0.00,,,0.00,,2013-04-04 21:12:00,
2013-04-04 17:22:00,55.0,22.0,30.21,SW,225,0.0,0.0,27,0.00,,,0.00,,2013-04-04 21:22:00,
2013-04-04 17:32:00,55.0,23.0,30.21,SW,225,0.0,0.0,28,0.00,,,0.00,,2013-04-04 21:32:00,
2013-04-04 17:43:00,55.0,23.0,30.21,SW,225,0.0,0.0,28,0.00,,,0.00,,2013-04-04 21:43:00,
2013-04-04 17:53:00,55.0,23.0,30.20,SW,225,0.0,0.0,28,0.00,,,0.00,,2013-04-04 21:53:00,
2013-04-04 18:04:00,54.0,22.0,30.17,SW,225,0.0,0.0,28,0.00,,,0.00,,2013-04-04 22:04:00,
2013-04-04 18:12:00,54.0,22.0,30.17,SW,225,0.0,0.0,28,0.00,,,0.00,,2013-04-04 22:12:00,
2013-04-04 18:23:00,52.0,20.0,30.13,SW,225,0.0,0.0,28,0.00,,,0.00,,2013-04-04 22:23:00,
2013-04-04 18:33:00,52.0,20.0,30.13,SW,225,0.0,0.0,28,0.00,,,0.00,,2013-04-04 22:33:00,
2013-04-04 18:42:00,52.0,20.0,30.13,SW,225,0.0,0.0,28,0.00,,,0.00,,2013-04-04 22:42:00,
2013-04-04 18:53:00,51.0,20.0,30.12,SW,225,0.0,0.0,29,0.00,,,0.00,,2013-04-04 22:53:00,
2013-04-04 19:03:00,50.0,20.0,30.12,SW,225,0.0,0.0,30,0.00,,,0.00,,2013-04-04 23:03:00,
2013-04-04 19:12:00,50.0,20.0,30.12,SW,225,0.0,0.0,30,0.00,,,0.00,,2013-04-04 23:12:00,
2013-04-04 19:22:00,49.0,19.0,30.13,SW,225,0.0,0.0,30,0.00,,,0.00,,2013-04-04 23:22:00,
2013-04-04 19:32:00,49.0,20.0,30.13,SW,225,0.0,0.0,31,0.00,,,0.00,,2013-04-04 23:32:00,
2013-04-04 19:42:00,49.0,20.0,30.13,SW,225,0.0,0.0,31,0.00,,,0.00,,2013-04-04 23:42:00,
2013-04-04 19:52:00,48.0,20.0,30.12,SW,225,0.0,0.0,32,0.00,,,0.00,,2013-04-04 23:52:00,
2013-04-04 20:02:00,48.0,20.0,30.16,SW,225,5.0,6.0,33,0.00,,,0.00,,2013-04-05 00:02:00,
2013-04-04 20:12:00,48.0,20.0,30.16,SW,225,5.0,6.0,33,0.00,,,0.00,,2013-04-05 00:12:00,
2013-04-04 20:22:00,47.0,20.0,30.18,SW,225,0.0,6.0,34,0.00,,,0.00,,2013-04-05 00:22:00,
2013-04-04 20:33:00,47.0,21.0,30.18,SW,225,0.0,0.0,35,0.00,,,0.00,,2013-04-05 00:33:00,
2013-04-04 20:42:00,47.0,21.0,30.18,SW,225,0.0,0.0,35,0.00,,,0.00,,2013-04-05 00:42:00,
2013-04-04 20:52:00,46.0,20.0,30.18,SW,225,0.0,0.0,35,0.00,,,0.00,,2013-04-05 00:52:00,
2013-04-04 21:02:00,46.0,21.0,30.19,SW,225,0.0,0.0,36,0.00,,,0.00,,2013-04-05 01:02:00,
2013-04-04 21:12:00,46.0,21.0,30.19,SW,225,0.0,0.0,36,0.00,,,0.00,,2013-04-05 01:12:00,
2013-04-04 21:22:00,46.0,21.0,30.11,West,270,5.0,6.0,36,0.00,,,0.00,,2013-04-05 01:22:00,
2013-04-04 21:32:00,45.0,20.0,30.11,SW,225,3.0,6.0,37,0.00,,,0.00,,2013-04-05 01:32:00,
2013-04-04 21:42:00,45.0,20.0,30.11,SW,225,3.0,6.0,37,0.00,,,0.00,,2013-04-05 01:42:00,
2013-04-04 21:53:00,45.0,20.0,30.10,South,180,3.0,6.0,37,0.00,,,0.00,,2013-04-05 01:53:00,
2013-04-04 22:03:00,45.0,20.0,30.10,WSW,248,3.0,8.0,37,0.00,,,0.00,,2013-04-05 02:03:00,
2013-04-04 22:12:00,45.0,20.0,30.10,WSW,248,3.0,8.0,37,0.00,,,0.00,,2013-04-05 02:12:00,
2013-04-04 22:22:00,44.0,19.0,30.10,South,180,3.0,8.0,37,0.00,,,0.00,,2013-04-05 02:22:00,
2013-04-04 22:32:00,44.0,19.0,30.10,SSW,202,2.0,6.0,37,0.00,,,0.00,,2013-04-05 02:32:00,
2013-04-04 22:42:00,44.0,19.0,30.10,SSW,202,2.0,6.0,37,0.00,,,0.00,,2013-04-05 02:42:00,
2013-04-04 22:52:00,44.0,19.0,30.09,WSW,248,3.0,7.0,37,0.00,,,0.00,,2013-04-05 02:52:00,
2013-04-04 23:02:00,44.0,19.0,30.12,SSW,202,3.0,6.0,37,0.00,,,0.00,,2013-04-05 03:02:00,
2013-04-04 23:12:00,44.0,19.0,30.12,SSW,202,3.0,6.0,37,0.00,,,0.00,,2013-04-05 03:12:00,
2013-04-04 23:22:00,44.0,19.0,30.14,South,180,3.0,5.0,37,0.00,,,0.00,,2013-04-05 03:22:00,
2013-04-04 23:32:00,43.0,19.0,30.14,South,180,3.0,6.0,37,0.00,,,0.00,,2013-04-05 03:32:00,
2013-04-04 23:43:00,43.0,19.0,30.14,South,180,3.0,6.0,37,0.00,,,0.00,,2013-04-05 03:43:00,
2013-04-04 23:54:00,43.0,19.0,30.14,South,180,0.0,6.0,38,0.00,,,0.00,,2013-04-05 03:54:00,